Location: Harwich
(41.7160°N, 69.9939°W)
Time: 12:53:27
(UTC+01:00)

A-11 Canister half - Pass Details

Date: 06 December 2023
Orbit: 1526 x 1682 km, 47.3° (Epoch: 01 March)

Event Time Altitude Azimuth Distance (km) Brightness Sun altitude
Rises 09:22:32 0° 285° (WNW) 4,845 - -38.4°
Reaches altitude 10° 09:29:15 10° 253° (WSW) 3,808 - -37.1°
Maximum altitude 09:31:21 11° 240° (WSW) 3,722 - -36.7°
Drops below altitude 10° 09:33:28 10° 227° (SW) 3,776 - -36.3°
Exits shadow 09:39:42 - 196° (SSW) 4,643 11.4 -35.2°
Sets 09:40:03 0° 194° (SSW) 4,713 11.4 -35.1°
